Simultaneous Nadir Overpasses (SNOs) Predictions

Prediction of SNOs between LANDSAT-8 and NOAA-19 Satellite Orbit:

Table of predicted SNOs for the next 14.0 days since TLE Epoch: 11/29/2013
Index Date (LANDSAT-8) Time (LANDSAT-8) Lat,Lon (LANDSAT-8) SZA (LANDSAT-8 ) Date (NOAA-19) Time (NOAA-19) Lat,Lon (NOAA-19) SZA (NOAA-19 ) Distance(km) Time Diff (sec)
1 12/01/2013 04:06:36 71.30, 116.86 93.01 12/01/2013 04:05:48 71.31, 116.92 93.03 2.93 48
2 12/01/2013 04:56:06 -71.19, -75.68 87.10 12/01/2013 04:56:52 -71.22, -75.68 87.07 3.07 46
3 12/03/2013 08:50:53 71.34, 45.84 93.38 12/03/2013 08:49:57 71.32, 45.88 93.36 1.96 56
4 12/03/2013 09:40:23 -71.23,-146.69 86.73 12/03/2013 09:41:01 -71.24,-146.74 86.72 2.14 38
5 12/05/2013 13:35:10 71.37, -25.18 93.70 12/05/2013 13:34:06 71.35, -25.18 93.68 2.47 64
6 12/05/2013 14:24:41 -71.22, 142.21 86.46 12/05/2013 14:25:09 -71.23, 142.26 86.44 2.48 28
7 12/07/2013 18:19:27 71.40, -96.21 93.98 12/07/2013 18:18:15 71.39, -96.26 93.97 2.28 72
8 12/07/2013 19:08:58 -71.25, 71.18 86.18 12/07/2013 19:09:17 -71.23, 71.24 86.19 2.63 19
9 12/09/2013 23:03:41 71.58,-166.99 94.38 12/09/2013 23:02:29 71.69,-167.84 94.49 32.35 72
10 12/09/2013 23:53:15 -71.27, 0.13 85.94 12/09/2013 23:53:25 -71.25, 0.19 85.95 2.73 10
11 12/12/2013 03:47:52 71.91, 122.50 94.90 12/12/2013 03:46:43 72.01, 120.54 94.99 68.29 69
12 12/12/2013 04:37:32 -71.28, -70.92 85.75 12/12/2013 04:37:33 -71.28, -70.88 85.74 1.70 1




NCC Satellite Simultaneous Nadir Overpasses (SNOs) Prediction Service
